This is the latest recevied weather packets stored in our database for station/object 9D9-WX. If no packets are shown the sender has not sent any weather packets the latest 10 day(s).
| Time | Temp. | Humidity | Pressure | Rain* | Wind** | Luminosity | Snow |
|---|---|---|---|---|---|---|---|
| 1777940111 | 20° C | 43% | 972.1 hPa | 0 mm | - | - | - |
| 1777939229 | 20.56° C | 43% | 972.1 hPa | 0 mm | - | - | - |
| 1777938310 | 21.11° C | 33% | 972 hPa | 0 mm | - | - | - |
| 1777937427 | 21.11° C | 33% | 971.9 hPa | 0 mm | - | - | - |
| 1777936510 | 21.67° C | 33% | 971.9 hPa | 0 mm | - | - | - |
| 1777935631 | 22.22° C | 33% | 971.9 hPa | 0 mm | - | - | - |
| 1777934710 | 22.22° C | 36% | 971.5 hPa | 0 mm | - | - | - |
| 1777933829 | 22.78° C | 37% | 971.9 hPa | 0 mm | - | - | - |
| 1777932910 | 22.78° C | 37% | 971.9 hPa | 0 mm | - | - | - |
| 1777932034 | 22.78° C | 37% | 971.9 hPa | 0 mm | - | - | - |
| 1777931109 | 22.78° C | 37% | 973 hPa | 0 mm | - | - | - |
| 1777930229 | 22.78° C | 37% | 973 hPa | 0 mm | - | - | - |
| 1777929309 | 22.78° C | 36% | 972 hPa | 0 mm | - | - | - |
| 1777928432 | 22.78° C | 36% | 972 hPa | 0 mm | - | - | - |
| 1777927514 | 22.78° C | 38% | 972.7 hPa | 0 mm | - | - | - |
| 1777926622 | 23.33° C | 38% | 972.7 hPa | 0 mm | - | - | - |
| 1777925715 | 23.33° C | 38% | 972.7 hPa | 0 mm | - | - | - |
| 1777924829 | 23.33° C | 39% | 971.9 hPa | 0 mm | - | - | - |
| 1777923915 | 23.33° C | 40% | 973 hPa | 0 mm | - | - | - |
| 1777923030 | 23.33° C | 40% | 973 hPa | 0 mm | - | - | - |
| 1777922115 | 22.78° C | 40% | 972.9 hPa | 0 mm | - | - | - |
| 1777921233 | 22.78° C | 40% | 972.9 hPa | 0 mm | - | - | - |
| 1777920311 | 22.78° C | 30% | 974 hPa | 0 mm | - | - | - |
| 1777919431 | 22.78° C | 30% | 973.7 hPa | 0 mm | - | - | - |
| 1777918515 | 22.78° C | 30% | 973.7 hPa | 0 mm | - | - | - |
* Rain latest hour (hover to see other rain measurements)
** Current wind speed in m/s (hover to see current wind gust speed)